STARLINK-32620, 61928

Orbit data source: Space-Track

STARLINK-32620, 61928 is a payload satellite owned by SpaceX/Seattle (US) in LEO that was launched on Mon, 11 Nov 2024 UTC via an FALCON 9 launch vehicle from the Air Force Eastern Test Range (AFETR). Payload-class satellites include a variety of spacecraft equipped with specific instruments for various scientific and technological missions. These include communications satellites like Starlink; space stations such as the ISS; scientific satellites like the Hubble; Earth observation satellites from companies like Planet Labs, Umbra, and HawkEye 360; GPS; miniature CubeSats for education and research; and military/defense satellites.

Loading next visibility...
Identifier
61928, 2024-207S
Orbit
LEO
Country
Flag of USUS
Related business
Manufacturer
SpaceX/Seattle
Mission
Operational Commercial Communications
Bus & Motor
STARLINK V2M, Unknown motor
Mass
730 kg wet, ~700 kg dry
Launch date (UTC)
2024-11-11 (2 years ago)
Launch vehicle
FALCON 9
Launch site
Air Force Eastern Test Range (AFETR)
Object type
Payload
Rocket body
Debris
Shape & HBR
Box + 2 Pan, 17.7 m
Radar Cross Section
33.884 m², Large (>1 m²)

Expand to show TLE details & history
Last TLE update: 15 hours ago

TLE from 15 hours ago
0 STARLINK-32620
1 61928U 24207S   26263.02863897  .00007492  00000-0  28165-3 0  9990
2 61928  42.9994 264.2219 0000732 218.1328 141.9472 15.27561155104447
Epoch: 2026-09-20T00:41Z
TLE epoch observation values (Epoch: 2026-09-20T00:41:14.407Z)
Latitude
0.00001°
Longitude
-105.01682°
Altitude
483.276 km
Speed
7.625 km/s
True Right ascension
17h 36m 53s
True Declination
0° 00' 00"
Sunlit
Object was in daylight at epoch
Visualization orbit readout
Latitude
Unknown
Longitude
Unknown
Altitude
Unknown
Speed
Unknown
Apparent Right ascension
Unknown
Apparent Declination
Unknown
Sunlit
N/A
Visualization observer readout
Local Sidereal Time
08:29:27
Azimuth
Unknown
Elevation
Unknown
Doppler factor
Unknown
Orbital elements
Apogee altitude
485.553 km
Perigee altitude
484.548 km
Semi-major axis
6,863.188 km
Eccentricity
0.00007
Inclination
42.9994°
RAAN
264.2219°
Arg. of periapsis
218.1328°
True anomaly
141.95237°
Mean anomaly
141.9472°
Eccentric anomaly
141.94979°
Mean motion
3.81728 °/min
Orbital period
94.31 mins
BSTAR
0.00028165
Loading maneuver chart data...
Computing Atmospheric mass density...
Loading historical data...
Loading historical data...
Loading historical data...
Loading historical data...
Loading historical data...
Loading historical data...
Loading historical data...

Documentation

Showing up to 5 results
|